TimeMST,TemperatureF,Dew PointF,Humidity,Sea Level PressureIn,VisibilityMPH,Wind Direction,Wind SpeedMPH,Gust SpeedMPH,PrecipitationIn,Events,Conditions,WindDirDegrees,DateUTC
12:15 AM,43.9,15.8,32,30.05,10.0,NW,20.7,28.8,N/A,,Clear,320,2014-02-13 07:15:00
12:35 AM,44.1,16.2,33,30.06,10.0,NW,20.7,26.5,N/A,,Clear,320,2014-02-13 07:35:00
12:55 AM,43.7,16.2,33,30.06,10.0,NW,13.8,-,N/A,,Clear,310,2014-02-13 07:55:00
1:15 AM,43.5,16.3,34,30.06,10.0,NNW,5.8,-,N/A,,Clear,330,2014-02-13 08:15:00
1:35 AM,45.0,16.7,32,30.06,10.0,North,10.4,18.4,N/A,,Clear,350,2014-02-13 08:35:00
1:55 AM,44.4,16.7,33,30.05,10.0,NNW,21.9,28.8,N/A,,Clear,330,2014-02-13 08:55:00
2:15 AM,40.1,15.6,37,30.06,10.0,NNW,12.7,26.5,N/A,,Clear,340,2014-02-13 09:15:00
2:35 AM,39.4,16.2,39,30.06,10.0,NNW,13.8,-,N/A,,Clear,340,2014-02-13 09:35:00
2:55 AM,38.5,15.3,39,30.07,10.0,North,9.2,-,N/A,,Clear,350,2014-02-13 09:55:00
3:15 AM,36.5,15.1,42,30.08,10.0,ESE,5.8,-,N/A,,Clear,120,2014-02-13 10:15:00
3:35 AM,38.8,15.6,39,30.10,10.0,ESE,8.1,-,N/A,,Clear,110,2014-02-13 10:35:00
3:55 AM,36.9,15.6,42,30.09,10.0,ESE,5.8,-,N/A,,Clear,110,2014-02-13 10:55:00
4:15 AM,36.1,15.8,44,30.10,10.0,East,3.5,-,N/A,,Clear,80,2014-02-13 11:15:00
4:35 AM,35.1,16.0,46,30.10,10.0,North,5.8,-,N/A,,Clear,10,2014-02-13 11:35:00
4:55 AM,32.2,15.6,51,30.11,10.0,North,4.6,-,N/A,,Clear,350,2014-02-13 11:55:00
5:15 AM,30.9,15.3,52,30.12,10.0,NNE,6.9,-,N/A,,Clear,20,2014-02-13 12:15:00
5:35 AM,28.6,15.3,58,30.12,10.0,NNE,8.1,-,N/A,,Clear,20,2014-02-13 12:35:00
5:55 AM,28.4,15.3,58,30.12,10.0,Calm,Calm,-,N/A,,Clear,0,2014-02-13 12:55:00
6:15 AM,28.2,15.1,58,30.13,10.0,Calm,Calm,-,N/A,,Clear,0,2014-02-13 13:15:00
6:35 AM,27.1,14.5,59,30.13,10.0,Calm,Calm,-,N/A,,Clear,0,2014-02-13 13:35:00
6:55 AM,28.0,15.1,58,30.14,10.0,Calm,Calm,-,N/A,,Clear,0,2014-02-13 13:55:00
7:15 AM,25.2,13.1,60,30.14,10.0,Calm,Calm,-,N/A,,Clear,0,2014-02-13 14:15:00
7:35 AM,27.7,15.6,61,30.16,10.0,Calm,Calm,-,N/A,,Clear,0,2014-02-13 14:35:00
7:55 AM,31.6,16.9,54,30.16,10.0,Calm,Calm,-,N/A,,Clear,0,2014-02-13 14:55:00
8:15 AM,35.4,17.6,48,30.16,10.0,Calm,Calm,-,N/A,,Clear,0,2014-02-13 15:15:00
8:35 AM,38.5,17.8,43,30.17,10.0,Calm,Calm,-,N/A,,Clear,0,2014-02-13 15:35:00
8:55 AM,41.7,18.3,39,30.17,10.0,ENE,4.6,-,N/A,,Clear,60,2014-02-13 15:55:00
9:15 AM,44.4,18.3,35,30.17,10.0,Calm,Calm,-,N/A,,Clear,0,2014-02-13 16:15:00
9:35 AM,46.8,18.9,33,30.17,10.0,ENE,3.5,-,N/A,,Clear,70,2014-02-13 16:35:00
9:55 AM,48.0,19.2,32,30.17,10.0,Calm,Calm,-,N/A,,Clear,0,2014-02-13 16:55:00
10:15 AM,50.0,19.9,31,30.16,10.0,Calm,Calm,-,N/A,,Clear,0,2014-02-13 17:15:00
10:35 AM,51.8,20.5,29,30.16,10.0,SSE,5.8,-,N/A,,Clear,150,2014-02-13 17:35:00
10:55 AM,53.6,21.0,28,30.15,10.0,Calm,Calm,-,N/A,,Clear,0,2014-02-13 17:55:00
11:15 AM,55.6,21.4,26,30.14,10.0,WSW,5.8,-,N/A,,Clear,240,2014-02-13 18:15:00
11:35 AM,57.7,21.6,25,30.13,10.0,West,5.8,-,N/A,,Clear,280,2014-02-13 18:35:00
11:55 AM,57.6,21.6,25,30.11,10.0,SW,4.6,-,N/A,,Clear,220,2014-02-13 18:55:00
12:35 PM,61.2,20.7,21,30.07,10.0,West,18.4,25.3,N/A,,Clear,270,2014-02-13 19:35:00
12:55 PM,61.7,20.3,20,30.06,10.0,West,21.9,26.5,N/A,,Clear,280,2014-02-13 19:55:00
1:15 PM,61.7,19.8,20,30.05,10.0,West,19.6,28.8,N/A,,Clear,270,2014-02-13 20:15:00
1:35 PM,61.9,20.1,20,30.04,10.0,WNW,19.6,23.0,N/A,,Clear,290,2014-02-13 20:35:00
1:55 PM,61.7,19.8,20,30.04,10.0,WNW,24.2,31.1,N/A,,Clear,290,2014-02-13 20:55:00
2:15 PM,61.5,20.3,20,30.03,10.0,West,21.9,27.6,N/A,,Clear,270,2014-02-13 21:15:00
2:35 PM,61.3,20.1,20,30.02,10.0,West,17.3,26.5,N/A,,Clear,280,2014-02-13 21:35:00
2:55 PM,61.2,20.3,21,30.02,10.0,WNW,18.4,27.6,N/A,,Clear,290,2014-02-13 21:55:00
3:15 PM,61.2,20.1,21,30.02,10.0,West,20.7,28.8,N/A,,Clear,280,2014-02-13 22:15:00
3:35 PM,61.3,20.3,21,30.01,10.0,West,15.0,-,N/A,,Clear,270,2014-02-13 22:35:00
3:55 PM,61.7,20.3,20,30.01,10.0,West,17.3,20.7,N/A,,Clear,260,2014-02-13 22:55:00
4:15 PM,61.7,19.8,20,30.01,10.0,West,16.1,24.2,N/A,,Clear,280,2014-02-13 23:15:00
4:35 PM,61.7,19.9,20,30.01,10.0,WNW,19.6,24.2,N/A,,Clear,290,2014-02-13 23:35:00
4:55 PM,60.8,19.9,21,30.01,10.0,West,12.7,25.3,N/A,,Clear,280,2014-02-13 23:55:00
5:15 PM,59.2,19.4,21,30.01,10.0,WNW,20.7,25.3,N/A,,Clear,300,2014-02-14 00:15:00
5:35 PM,57.4,19.4,23,30.02,10.0,NW,16.1,24.2,N/A,,Clear,320,2014-02-14 00:35:00
5:55 PM,54.7,19.8,26,30.03,10.0,NW,16.1,-,N/A,,Clear,320,2014-02-14 00:55:00
6:15 PM,53.6,19.4,26,30.04,10.0,NW,12.7,-,N/A,,Clear,310,2014-02-14 01:15:00
6:35 PM,52.3,19.9,28,30.05,10.0,NNW,16.1,-,N/A,,Clear,330,2014-02-14 01:35:00
6:55 PM,52.7,20.1,28,30.06,10.0,NNW,13.8,21.9,N/A,,Clear,340,2014-02-14 01:55:00
7:15 PM,51.1,19.9,29,30.06,10.0,NNW,15.0,18.4,N/A,,Clear,340,2014-02-14 02:15:00
7:35 PM,49.5,19.8,31,30.06,10.0,NNW,13.8,-,N/A,,Clear,330,2014-02-14 02:35:00
7:55 PM,49.8,19.9,31,30.05,10.0,NNW,13.8,19.6,N/A,,Clear,330,2014-02-14 02:55:00
8:15 PM,49.1,19.9,32,30.05,10.0,NW,13.8,-,N/A,,Clear,320,2014-02-14 03:15:00
8:35 PM,44.8,18.9,36,30.05,10.0,NW,11.5,-,N/A,,Clear,310,2014-02-14 03:35:00
8:55 PM,46.6,19.9,35,30.05,10.0,WNW,13.8,-,N/A,,Clear,300,2014-02-14 03:55:00
9:15 PM,48.0,20.1,33,30.04,10.0,NW,13.8,-,N/A,,Clear,310,2014-02-14 04:15:00
9:35 PM,45.5,19.6,36,30.04,10.0,NW,12.7,-,N/A,,Clear,310,2014-02-14 04:35:00
9:55 PM,44.6,19.4,37,30.03,10.0,NW,10.4,-,N/A,,Clear,310,2014-02-14 04:55:00
10:15 PM,46.9,20.3,35,30.04,10.0,NW,13.8,-,N/A,,Clear,310,2014-02-14 05:15:00
10:35 PM,44.8,19.9,37,30.05,10.0,NW,12.7,-,N/A,,Clear,320,2014-02-14 05:35:00
10:55 PM,42.4,20.3,41,30.05,10.0,NW,13.8,-,N/A,,Clear,310,2014-02-14 05:55:00
11:15 PM,46.2,20.3,36,30.06,10.0,NW,15.0,-,N/A,,Clear,320,2014-02-14 06:15:00
11:35 PM,44.6,19.4,37,30.04,10.0,NW,16.1,-,N/A,,Clear,320,2014-02-14 06:35:00
11:55 PM,45.0,19.9,37,30.05,10.0,NW,17.3,-,N/A,,Clear,320,2014-02-14 06:55:00